,,Stat6,,Stat2,,Stat8,,Stat9,,Stat10,,Wind1,,Wind1,
time,status,PA1M_AVG,status,PR1M_SUM,status,RH1M_AVG,status,SR1M_AVG,status,TA1M_AVG,status,W1dAve1m,status,W1sAve1m,
2005-09-06, 00:00:00,VALID,916.677,VALID,0,VALID,100,VALID,0.0509425,VALID,20.3265,VALID,92,VALID,0,
2005-09-06, 00:01:00,VALID,916.677,VALID,0,VALID,100,VALID,0.0679233,VALID,20.3397,VALID,92,VALID,0,
2005-09-06, 00:02:00,VALID,916.678,VALID,0,VALID,100,VALID,0.0339617,VALID,20.3531,VALID,92,VALID,0,
2005-09-06, 00:03:00,VALID,916.659,VALID,0,VALID,100,VALID,0.0169808,VALID,20.3407,VALID,92,VALID,0.16183,
2005-09-06, 00:04:00,VALID,916.665,VALID,0,VALID,100,VALID,0.0509425,VALID,20.2947,VALID,95,VALID,0.418826,
2005-09-06, 00:05:00,VALID,916.628,VALID,0,VALID,100,VALID,0.0679233,VALID,20.298,VALID,119,VALID,0.643973,
2005-09-06, 00:06:00,VALID,916.605,VALID,0,VALID,100,VALID,0.0679233,VALID,20.3017,VALID,143,VALID,0.911204,
2005-09-06, 00:07:00,VALID,916.584,VALID,0,VALID,100,VALID,-0.0849042,VALID,20.2963,VALID,130,VALID,0.682292,
2005-09-06, 00:08:00,VALID,916.557,VALID,0,VALID,100,VALID,-0.0509425,VALID,20.2769,VALID,135,VALID,0.968932,
2005-09-06, 00:09:00,VALID,916.553,VALID,0,VALID,100,VALID,-0.0339617,VALID,20.2928,VALID,134,VALID,0.956101,
2005-09-06, 00:10:00,VALID,916.547,VALID,0,VALID,100,VALID,-0.101885,VALID,20.3157,VALID,134,VALID,0.814258,
2005-09-06, 00:11:00,VALID,916.561,VALID,0,VALID,100,VALID,-0.0509425,VALID,20.3388,VALID,135,VALID,0.627725,
2005-09-06, 00:12:00,VALID,916.566,VALID,0,VALID,100,VALID,-0.101885,VALID,20.3482,VALID,135,VALID,0.638849,
2005-09-06, 00:13:00,VALID,916.565,VALID,0,VALID,100,VALID,-0.0509425,VALID,20.345,VALID,135,VALID,0.68314,
2005-09-06, 00:14:00,VALID,916.572,VALID,0,VALID,100,VALID,-0.0509425,VALID,20.3321,VALID,135,VALID,0.182106,
2005-09-06, 00:15:00,VALID,916.58,VALID,0,VALID,100,VALID,-0.0509425,VALID,20.2675,VALID,135,VALID,0.14253,
2005-09-06, 00:16:00,VALID,916.596,VALID,0,VALID,100,VALID,-0.0509425,VALID,20.2088,VALID,135,VALID,0.341388,
2005-09-06, 00:17:00,VALID,916.595,VALID,0,VALID,100,VALID,-0.0509425,VALID,20.1576,VALID,134,VALID,0.441939,
2005-09-06, 00:18:00,VALID,916.597,VALID,0,VALID,100,VALID,-0.0679233,VALID,20.1706,VALID,131,VALID,0.615552,
2005-09-06, 00:19:00,VALID,916.586,VALID,0,VALID,100,VALID,0,VALID,20.1859,VALID,131,VALID,0.620384,
2005-09-06, 00:20:00,VALID,916.568,VALID,0,VALID,100,VALID,-0.0679233,VALID,20.1832,VALID,130,VALID,0.530678,
2005-09-06, 00:21:00,VALID,916.555,VALID,0,VALID,100,VALID,-0.0339617,VALID,20.1544,VALID,129,VALID,0.585352,
2005-09-06, 00:22:00,VALID,916.534,VALID,0,VALID,100,VALID,-0.0339617,VALID,20.1547,VALID,130,VALID,0.420117,
2005-09-06, 00:23:00,VALID,916.536,VALID,0,VALID,100,VALID,-0.0339617,VALID,20.1512,VALID,130,VALID,0.716493,
2005-09-06, 00:24:00,VALID,916.531,VALID,0,VALID,100,VALID,-0.0679233,VALID,20.1517,VALID,132,VALID,0.851749,
2005-09-06, 00:25:00,VALID,916.536,VALID,0,VALID,100,VALID,-0.0679233,VALID,20.138,VALID,136,VALID,0.913336,
2005-09-06, 00:26:00,VALID,916.534,VALID,0,VALID,100,VALID,-0.0849042,VALID,20.1547,VALID,135,VALID,0.765447,
2005-09-06, 00:27:00,VALID,916.516,VALID,0,VALID,100,VALID,-0.0849042,VALID,20.1517,VALID,131,VALID,0.641715,
2005-09-06, 00:28:00,VALID,916.499,VALID,0,VALID,100,VALID,-0.0679233,VALID,20.1584,VALID,123,VALID,0.571555,
2005-09-06, 00:29:00,VALID,916.486,VALID,0,VALID,100,VALID,-0.0679233,VALID,20.145,VALID,127,VALID,0.410156,
2005-09-06, 00:30:00,VALID,916.463,VALID,0,VALID,100,VALID,-0.101885,VALID,20.1323,VALID,141,VALID,0.65,
2005-09-06, 00:31:00,VALID,916.481,VALID,0,VALID,100,VALID,-0.0679233,VALID,20.141,VALID,146,VALID,0.665365,
2005-09-06, 00:32:00,VALID,916.469,VALID,0,VALID,100,VALID,-0.0849042,VALID,20.1738,VALID,143,VALID,0.418445,
2005-09-06, 00:33:00,VALID,916.46,VALID,0,VALID,100,VALID,-0.0679233,VALID,20.17,VALID,143,VALID,0.37207,
2005-09-06, 00:34:00,VALID,916.445,VALID,0,VALID,100,VALID,-0.0679233,VALID,20.174,VALID,143,VALID,0.291243,
2005-09-06, 00:35:00,VALID,916.437,VALID,0,VALID,100,VALID,-0.0849042,VALID,20.0863,VALID,143,VALID,0.150856,
2005-09-06, 00:36:00,VALID,916.421,VALID,0,VALID,100,VALID,-0.0509425,VALID,20.0381,VALID,143,VALID,0.280903,
2005-09-06, 00:37:00,VALID,916.4,VALID,0,VALID,100,VALID,-0.0679233,VALID,20.0769,VALID,143,VALID,0.0695858,
2005-09-06, 00:38:00,VALID,916.374,VALID,0,VALID,100,VALID,-0.0679233,VALID,20.0833,VALID,143,VALID,0,
2005-09-06, 00:39:00,VALID,916.346,VALID,0,VALID,100,VALID,-0.0509425,VALID,20.0083,VALID,143,VALID,0,
2005-09-06, 00:40:00,VALID,916.336,VALID,0,VALID,100,VALID,-0.0509425,VALID,20.009,VALID,143,VALID,0,
2005-09-06, 00:41:00,VALID,916.33,VALID,0,VALID,100,VALID,-0.0509425,VALID,20.0411,VALID,143,VALID,0,
2005-09-06, 00:42:00,VALID,916.323,VALID,0,VALID,100,VALID,-0.0339617,VALID,20.0187,VALID,143,VALID,0,
2005-09-06, 00:43:00,VALID,916.306,VALID,0,VALID,100,VALID,-0.0849042,VALID,19.9122,VALID,142,VALID,0.068314,
2005-09-06, 00:44:00,VALID,916.282,VALID,0,VALID,100,VALID,-0.0849042,VALID,19.8575,VALID,139,VALID,0.363281,
2005-09-06, 00:45:00,VALID,916.265,VALID,0,VALID,100,VALID,-0.0509425,VALID,19.861,VALID,137,VALID,0.359776,
2005-09-06, 00:46:00,VALID,916.249,VALID,0,VALID,100,VALID,-0.0849042,VALID,19.8416,VALID,137,VALID,0.301525,
2005-09-06, 00:47:00,VALID,916.221,VALID,0,VALID,100,VALID,-0.101885,VALID,19.7802,VALID,137,VALID,0.35957,
2005-09-06, 00:48:00,VALID,916.213,VALID,0,VALID,100,VALID,-0.0849042,VALID,19.7087,VALID,137,VALID,0.382626,
2005-09-06, 00:49:00,VALID,916.226,VALID,0,VALID,100,VALID,-0.0509425,VALID,19.6828,VALID,135,VALID,0.240189,
2005-09-06, 00:50:00,VALID,916.233,VALID,0,VALID,100,VALID,-0.0509425,VALID,19.6538,VALID,135,VALID,0.193677,
2005-09-06, 00:51:00,VALID,916.23,VALID,0,VALID,100,VALID,-0.0849042,VALID,19.6212,VALID,135,VALID,0.444222,
2005-09-06, 00:52:00,VALID,916.229,VALID,0,VALID,100,VALID,-0.0849042,VALID,19.612,VALID,135,VALID,0.658612,
2005-09-06, 00:53:00,VALID,916.222,VALID,0,VALID,100,VALID,-0.0679233,VALID,19.6245,VALID,135,VALID,0.757813,
2005-09-06, 00:54:00,VALID,916.217,VALID,0,VALID,100,VALID,-0.0679233,VALID,19.657,VALID,135,VALID,0.67702,
2005-09-06, 00:55:00,VALID,916.202,VALID,0,VALID,100,VALID,-0.0679233,VALID,19.6833,VALID,133,VALID,0.620164,
2005-09-06, 00:56:00,VALID,916.178,VALID,0,VALID,100,VALID,-0.0509425,VALID,19.7415,VALID,130,VALID,0.655185,
2005-09-06, 00:57:00,VALID,916.156,VALID,0,VALID,100,VALID,-0.0849042,VALID,19.77,VALID,115,VALID,0.809126,
2005-09-06, 00:58:00,VALID,916.141,VALID,0,VALID,100,VALID,-0.0509425,VALID,19.7442,VALID,92,VALID,0.710938,
2005-09-06, 00:59:00,VALID,916.145,VALID,0,VALID,100,VALID,-0.0849042,VALID,19.7283,VALID,81,VALID,0.650724,
2005-09-06, 01:00:00,VALID,916.128,VALID,0,VALID,100,VALID,-0.0679233,VALID,19.609,VALID,73,VALID,0.690739,
2005-09-06, 01:01:00,VALID,916.126,VALID,0,VALID,100,VALID,-0.0339617,VALID,19.5407,VALID,73,VALID,0.715451,
2005-09-06, 01:02:00,VALID,916.112,VALID,0,VALID,100,VALID,-0.0849042,VALID,19.5899,VALID,73,VALID,0.610742,
2005-09-06, 01:03:00,VALID,916.105,VALID,0,VALID,100,VALID,-0.0339617,VALID,19.6093,VALID,73,VALID,0.671693,
2005-09-06, 01:04:00,VALID,916.088,VALID,0,VALID,100,VALID,-0.0509425,VALID,19.6091,VALID,74,VALID,0.70846,
2005-09-06, 01:05:00,VALID,916.08,VALID,0,VALID,100,VALID,-0.0849042,VALID,19.6508,VALID,75,VALID,0.873326,
2005-09-06, 01:06:00,VALID,916.07,VALID,0,VALID,100,VALID,-0.0849042,VALID,19.7512,VALID,82,VALID,0.909028,
2005-09-06, 01:07:00,VALID,916.052,VALID,0,VALID,100,VALID,-0.0849042,VALID,19.8548,VALID,70,VALID,0.781432,
2005-09-06, 01:08:00,VALID,916.03,VALID,0,VALID,100,VALID,-0.0509425,VALID,19.9062,VALID,70,VALID,0.665334,
2005-09-06, 01:09:00,VALID,915.989,VALID,0,VALID,100,VALID,-0.101885,VALID,19.8965,VALID,70,VALID,0.68192,
2005-09-06, 01:10:00,VALID,915.979,VALID,0,VALID,100,VALID,-0.0509425,VALID,19.8866,VALID,71,VALID,0.708133,
2005-09-06, 01:11:00,VALID,915.966,VALID,0,VALID,100,VALID,-0.0849042,VALID,19.8806,VALID,73,VALID,0.692645,
2005-09-06, 01:12:00,VALID,915.959,VALID,0,VALID,100,VALID,-0.0679233,VALID,19.8871,VALID,76,VALID,0.483631,
2005-09-06, 01:13:00,VALID,915.939,VALID,0,VALID,100,VALID,-0.0509425,VALID,19.854,VALID,76,VALID,0.499414,
2005-09-06, 01:14:00,VALID,915.94,VALID,0,VALID,100,VALID,-0.0169808,VALID,19.8222,VALID,76,VALID,0.557706,
2005-09-06, 01:15:00,VALID,915.963,VALID,0,VALID,100,VALID,-0.0339617,VALID,19.8287,VALID,76,VALID,0.699405,
2005-09-06, 01:16:00,VALID,915.964,VALID,0,VALID,100,VALID,-0.0679233,VALID,19.8354,VALID,76,VALID,0.648074,
2005-09-06, 01:17:00,VALID,915.978,VALID,0,VALID,100,VALID,-0.0679233,VALID,19.8095,VALID,76,VALID,0.557231,
2005-09-06, 01:18:00,VALID,915.992,VALID,0,VALID,100,VALID,-0.0849042,VALID,19.7931,VALID,76,VALID,0.559961,
2005-09-06, 01:19:00,VALID,916.002,VALID,0,VALID,100,VALID,-0.0849042,VALID,19.8031,VALID,76,VALID,0.528054,
2005-09-06, 01:20:00,VALID,916.02,VALID,0,VALID,100,VALID,-0.0679233,VALID,19.8001,VALID,76,VALID,0.426525,
2005-09-06, 01:21:00,VALID,916.007,VALID,0,VALID,100,VALID,-0.0339617,VALID,19.7961,VALID,76,VALID,0.353924,
2005-09-06, 01:22:00,VALID,916.003,VALID,0,VALID,100,VALID,-0.0849042,VALID,19.783,VALID,74,VALID,0.418146,
2005-09-06, 01:23:00,VALID,915.989,VALID,0,VALID,100,VALID,-0.0849042,VALID,19.8031,VALID,69,VALID,0.37793,
2005-09-06, 01:24:00,VALID,915.975,VALID,0,VALID,100,VALID,-0.0679233,VALID,19.809,VALID,65,VALID,0.313565,
2005-09-06, 01:25:00,VALID,915.963,VALID,0,VALID,100,VALID,-0.0169808,VALID,19.8386,VALID,64,VALID,0.108648,
2005-09-06, 01:26:00,VALID,915.956,VALID,0,VALID,100,VALID,-0.0849042,VALID,19.8481,VALID,64,VALID,0.0277549,
2005-09-06, 01:27:00,VALID,915.93,VALID,0,VALID,100,VALID,-0.0679233,VALID,19.8642,VALID,64,VALID,0.289426,
2005-09-06, 01:28:00,VALID,915.896,VALID,0,VALID,100,VALID,-0.0849042,VALID,19.8838,VALID,64,VALID,0.455163,
2005-09-06, 01:29:00,VALID,915.888,VALID,0,VALID,100,VALID,-0.101885,VALID,19.9258,VALID,64,VALID,0.461328,
2005-09-06, 01:30:00,VALID,915.883,VALID,0,VALID,100,VALID,0,VALID,19.9114,VALID,64,VALID,0.279647,
2005-09-06, 01:31:00,VALID,915.877,VALID,0,VALID,100,VALID,0.0849042,VALID,19.9007,VALID,48,VALID,0.491257,
2005-09-06, 01:32:00,VALID,915.872,VALID,0,VALID,100,VALID,0.101885,VALID,19.8977,VALID,19,VALID,0.403088,
2005-09-06, 01:33:00,VALID,915.859,VALID,0,VALID,100,VALID,0.0849042,VALID,19.9141,VALID,16,VALID,0.274182,
2005-09-06, 01:34:00,VALID,915.864,VALID,0,VALID,100,VALID,0.0849042,VALID,19.9166,VALID,16,VALID,0.157366,
2005-09-06, 01:35:00,VALID,915.842,VALID,0,VALID,100,VALID,0.0849042,VALID,19.9464,VALID,16,VALID,0.0357143,
2005-09-06, 01:36:00,VALID,915.838,VALID,0,VALID,100,VALID,0.0849042,VALID,19.9782,VALID,14,VALID,0.474466,
2005-09-06, 01:37:00,VALID,915.829,VALID,0,VALID,100,VALID,0.0849042,VALID,20.0269,VALID,11,VALID,0.462984,
2005-09-06, 01:38:00,VALID,915.81,VALID,0,VALID,100,VALID,0.101885,VALID,20.0684,VALID,11,VALID,0.466206,
2005-09-06, 01:39:00,VALID,915.788,VALID,0,VALID,100,VALID,0.101885,VALID,20.1434,VALID,11,VALID,0.273438,
2005-09-06, 01:40:00,VALID,915.756,VALID,0,VALID,100,VALID,0.118866,VALID,20.1658,VALID,11,VALID,0.133413,
2005-09-06, 01:41:00,VALID,915.716,VALID,0,VALID,100,VALID,0.0849042,VALID,20.1849,VALID,11,VALID,0.00360577,
2005-09-06, 01:42:00,VALID,915.69,VALID,0,VALID,100,VALID,0.0679233,VALID,20.2043,VALID,11,VALID,0,
2005-09-06, 01:43:00,VALID,915.676,VALID,0,VALID,100,VALID,0.101885,VALID,20.221,VALID,11,VALID,0,
2005-09-06, 01:44:00,VALID,915.667,VALID,0,VALID,99.8782,VALID,0.101885,VALID,20.2272,VALID,11,VALID,0,
2005-09-06, 01:45:00,VALID,915.673,VALID,0,VALID,99.6989,VALID,0,VALID,20.216,VALID,11,VALID,0,
2005-09-06, 01:46:00,VALID,915.692,VALID,0,VALID,99.5247,VALID,-0.118866,VALID,20.2009,VALID,11,VALID,0,
2005-09-06, 01:47:00,VALID,915.713,VALID,0,VALID,99.4306,VALID,-0.101885,VALID,20.1944,VALID,12,VALID,0.155248,
2005-09-06, 01:48:00,VALID,915.72,VALID,0,VALID,99.353,VALID,-0.0679233,VALID,20.1939,VALID,38,VALID,0.512109,
2005-09-06, 01:49:00,VALID,915.732,VALID,0,VALID,99.2411,VALID,-0.101885,VALID,20.1842,VALID,66,VALID,0.411754,
2005-09-06, 01:50:00,VALID,915.749,VALID,0,VALID,99.1801,VALID,-0.101885,VALID,20.1552,VALID,74,VALID,0.574033,
2005-09-06, 01:51:00,VALID,915.749,VALID,0,VALID,99.381,VALID,-0.101885,VALID,20.1261,VALID,82,VALID,0.660342,
2005-09-06, 01:52:00,VALID,915.741,VALID,0,VALID,99.7472,VALID,-0.101885,VALID,20.1137,VALID,87,VALID,0.791061,
2005-09-06, 01:53:00,VALID,915.741,VALID,0,VALID,99.9865,VALID,-0.118866,VALID,20.1072,VALID,94,VALID,0.830433,
2005-09-06, 01:54:00,VALID,915.747,VALID,0,VALID,100,VALID,-0.101885,VALID,20.0997,VALID,94,VALID,0.744368,
2005-09-06, 01:55:00,VALID,915.755,VALID,0,VALID,100,VALID,-0.101885,VALID,20.1201,VALID,94,VALID,0.863372,
2005-09-06, 01:56:00,VALID,915.74,VALID,0,VALID,99.9758,VALID,-0.101885,VALID,20.0878,VALID,95,VALID,0.593395,
2005-09-06, 01:57:00,VALID,915.738,VALID,0,VALID,100,VALID,-0.101885,VALID,20.052,VALID,95,VALID,0.57919,
2005-09-06, 01:58:00,VALID,915.722,VALID,0,VALID,100,VALID,-0.118866,VALID,20.0168,VALID,95,VALID,0.524826,
2005-09-06, 01:59:00,VALID,915.702,VALID,0,VALID,100,VALID,-0.101885,VALID,19.9979,VALID,95,VALID,0.47532,
2005-09-06, 02:00:00,VALID,915.693,VALID,0,VALID,100,VALID,-0.0679233,VALID,19.971,VALID,95,VALID,0.52439,
2005-09-06, 02:01:00,VALID,915.678,VALID,0,VALID,100,VALID,0,VALID,19.9442,VALID,95,VALID,0.434642,
2005-09-06, 02:02:00,VALID,915.672,VALID,0,VALID,100,VALID,0,VALID,19.9186,VALID,95,VALID,0.463423,
2005-09-06, 02:03:00,VALID,915.681,VALID,0,VALID,100,VALID,-0.0169808,VALID,19.8963,VALID,95,VALID,0.184451,
2005-09-06, 02:04:00,VALID,915.68,VALID,0,VALID,100,VALID,-0.0339617,VALID,19.8734,VALID,97,VALID,0.290451,
2005-09-06, 02:05:00,VALID,915.693,VALID,0,VALID,100,VALID,0.0169808,VALID,19.8605,VALID,103,VALID,0.566761,
2005-09-06, 02:06:00,VALID,915.721,VALID,0,VALID,100,VALID,0,VALID,19.8602,VALID,103,VALID,0.469283,
2005-09-06, 02:07:00,VALID,915.711,VALID,0,VALID,100,VALID,-0.0169808,VALID,19.8538,VALID,123,VALID,0.584985,
2005-09-06, 02:08:00,VALID,915.704,VALID,0,VALID,100,VALID,0,VALID,19.8535,VALID,161,VALID,0.797256,
2005-09-06, 02:09:00,VALID,915.693,VALID,0,VALID,100,VALID,0,VALID,19.8562,VALID,151,VALID,0.842188,
2005-09-06, 02:10:00,VALID,915.676,VALID,0,VALID,100,VALID,0,VALID,19.8632,VALID,143,VALID,0.759146,
2005-09-06, 02:11:00,VALID,915.664,VALID,0,VALID,100,VALID,0,VALID,19.8731,VALID,143,VALID,0.758557,
2005-09-06, 02:12:00,VALID,915.665,VALID,0,VALID,100,VALID,0,VALID,19.8729,VALID,143,VALID,0.835737,
2005-09-06, 02:13:00,VALID,915.67,VALID,0,VALID,100,VALID,0,VALID,19.8796,VALID,152,VALID,0.821456,
2005-09-06, 02:14:00,VALID,915.673,VALID,0,VALID,100,VALID,0,VALID,19.8796,VALID,138,VALID,0.734766,
2005-09-06, 02:15:00,VALID,915.676,VALID,0,VALID,100,VALID,0,VALID,19.8826,VALID,134,VALID,0.832403,
2005-09-06, 02:16:00,VALID,915.695,VALID,0,VALID,100,VALID,0,VALID,19.8697,VALID,130,VALID,0.679116,
2005-09-06, 02:17:00,VALID,915.706,VALID,0,VALID,100,VALID,0,VALID,19.8664,VALID,129,VALID,0.492006,
2005-09-06, 02:18:00,VALID,915.713,VALID,0,VALID,100,VALID,0,VALID,19.8734,VALID,129,VALID,0.311773,
2005-09-06, 02:19:00,VALID,915.706,VALID,0,VALID,100,VALID,-0.0169808,VALID,19.86,VALID,129,VALID,0.42242,
2005-09-06, 02:20:00,VALID,915.696,VALID,0,VALID,100,VALID,0,VALID,19.8632,VALID,129,VALID,0.498547,
2005-09-06, 02:21:00,VALID,915.693,VALID,0,VALID,100,VALID,0,VALID,19.8567,VALID,128,VALID,0.59003,
2005-09-06, 02:22:00,VALID,915.675,VALID,0,VALID,100,VALID,0.0169808,VALID,19.8726,VALID,122,VALID,0.932355,
2005-09-06, 02:23:00,VALID,915.675,VALID,0,VALID,100,VALID,0,VALID,19.8955,VALID,119,VALID,0.824219,
2005-09-06, 02:24:00,VALID,915.65,VALID,0,VALID,100,VALID,-0.0169808,VALID,19.8982,VALID,112,VALID,0.973544,
2005-09-06, 02:25:00,VALID,915.648,VALID,0,VALID,100,VALID,0,VALID,19.9216,VALID,112,VALID,0.903942,
2005-09-06, 02:26:00,VALID,915.63,VALID,0,VALID,100,VALID,0,VALID,19.9377,VALID,104,VALID,0.815163,
2005-09-06, 02:27:00,VALID,915.606,VALID,0,VALID,100,VALID,0,VALID,19.9507,VALID,103,VALID,0.789263,
2005-09-06, 02:28:00,VALID,915.6,VALID,0,VALID,100,VALID,0.0169808,VALID,19.9442,VALID,100,VALID,0.914244,
2005-09-06, 02:29:00,VALID,915.595,VALID,0,VALID,100,VALID,0.0169808,VALID,19.9445,VALID,100,VALID,0.939546,
2005-09-06, 02:30:00,VALID,915.59,VALID,0,VALID,100,VALID,-0.0339617,VALID,19.9512,VALID,97,VALID,0.924183,
2005-09-06, 02:31:00,VALID,915.594,VALID,0,VALID,100,VALID,-0.0509425,VALID,19.9579,VALID,88,VALID,0.857376,
2005-09-06, 02:32:00,VALID,915.594,VALID,0,VALID,100,VALID,-0.0679233,VALID,19.938,VALID,92,VALID,0.950107,
2005-09-06, 02:33:00,VALID,915.586,VALID,0,VALID,100,VALID,-0.101885,VALID,19.9651,VALID,95,VALID,1.0377,
2005-09-06, 02:34:00,VALID,915.579,VALID,0,VALID,100,VALID,-0.0339617,VALID,19.9648,VALID,94,VALID,1.08441,
2005-09-06, 02:35:00,VALID,915.595,VALID,0,VALID,100,VALID,-0.0679233,VALID,19.9482,VALID,95,VALID,0.872638,
2005-09-06, 02:36:00,VALID,915.591,VALID,0,VALID,100,VALID,-0.101885,VALID,19.9318,VALID,99,VALID,0.853087,
2005-09-06, 02:37:00,VALID,915.599,VALID,0,VALID,100,VALID,-0.0849042,VALID,19.9355,VALID,90,VALID,0.906605,
2005-09-06, 02:38:00,VALID,915.612,VALID,0,VALID,100,VALID,-0.0679233,VALID,19.9318,VALID,94,VALID,0.755335,
2005-09-06, 02:39:00,VALID,915.644,VALID,0,VALID,100,VALID,-0.0679233,VALID,19.9186,VALID,98,VALID,0.668713,
2005-09-06, 02:40:00,VALID,915.645,VALID,0,VALID,100,VALID,-0.0679233,VALID,19.9059,VALID,104,VALID,0.62173,
2005-09-06, 02:41:00,VALID,915.654,VALID,0,VALID,100,VALID,-0.0849042,VALID,19.897,VALID,105,VALID,0.635417,
2005-09-06, 02:42:00,VALID,915.654,VALID,0,VALID,100,VALID,-0.0849042,VALID,19.8707,VALID,107,VALID,0.898983,
2005-09-06, 02:43:00,VALID,915.648,VALID,0,VALID,100,VALID,-0.101885,VALID,19.8814,VALID,114,VALID,0.896076,
2005-09-06, 02:44:00,VALID,915.653,VALID,0,VALID,100,VALID,-0.101885,VALID,19.8543,VALID,115,VALID,0.67359,
2005-09-06, 02:45:00,VALID,915.665,VALID,0,VALID,100,VALID,-0.0169808,VALID,19.8515,VALID,112,VALID,0.568496,
2005-09-06, 02:46:00,VALID,915.664,VALID,0,VALID,100,VALID,-0.0169808,VALID,19.8344,VALID,110,VALID,0.575639,
2005-09-06, 02:47:00,VALID,915.662,VALID,0,VALID,100,VALID,0,VALID,19.8148,VALID,116,VALID,0.716206,
2005-09-06, 02:48:00,VALID,915.663,VALID,0,VALID,100,VALID,0.0169808,VALID,19.7917,VALID,130,VALID,0.630632,
2005-09-06, 02:49:00,VALID,915.681,VALID,0,VALID,100,VALID,0.0339617,VALID,19.7892,VALID,128,VALID,0.608594,
2005-09-06, 02:50:00,VALID,915.697,VALID,0,VALID,100,VALID,0,VALID,19.7892,VALID,131,VALID,0.555778,
2005-09-06, 02:51:00,VALID,915.691,VALID,0,VALID,100,VALID,0,VALID,19.7763,VALID,123,VALID,0.526344,
2005-09-06, 02:52:00,VALID,915.71,VALID,0,VALID,100,VALID,0,VALID,19.7599,VALID,123,VALID,0.422991,
2005-09-06, 02:53:00,VALID,915.716,VALID,0,VALID,100,VALID,0.0509425,VALID,19.7561,VALID,123,VALID,0.310683,
2005-09-06, 02:54:00,VALID,915.723,VALID,0,VALID,100,VALID,0.0339617,VALID,19.7534,VALID,123,VALID,0.49929,
2005-09-06, 02:55:00,VALID,915.712,VALID,0,VALID,100,VALID,0.0339617,VALID,19.7502,VALID,123,VALID,0.550442,
2005-09-06, 02:56:00,VALID,915.702,VALID,0,VALID,100,VALID,0.0169808,VALID,19.7531,VALID,123,VALID,0.644077,
2005-09-06, 02:57:00,VALID,915.706,VALID,0,VALID,100,VALID,0,VALID,19.7531,VALID,123,VALID,0.58085,
2005-09-06, 02:58:00,VALID,915.707,VALID,0,VALID,100,VALID,0,VALID,19.7529,VALID,128,VALID,0.570313,
2005-09-06, 02:59:00,VALID,915.713,VALID,0,VALID,100,VALID,0.0509425,VALID,19.7534,VALID,140,VALID,0.552202,
2005-09-06, 03:00:00,VALID,915.725,VALID,0,VALID,100,VALID,0.0169808,VALID,19.7397,VALID,141,VALID,0.550521,
2005-09-06, 03:01:00,VALID,915.715,VALID,0,VALID,100,VALID,0,VALID,19.7601,VALID,141,VALID,0.562691,
2005-09-06, 03:02:00,VALID,915.713,VALID,0,VALID,100,VALID,0.0339617,VALID,19.7857,VALID,141,VALID,0.597384,
2005-09-06, 03:03:00,VALID,915.696,VALID,0,VALID,100,VALID,0,VALID,19.7951,VALID,141,VALID,0.595567,
2005-09-06, 03:04:00,VALID,915.691,VALID,0,VALID,100,VALID,0.0169808,VALID,19.8113,VALID,141,VALID,0.594866,
2005-09-06, 03:05:00,VALID,915.693,VALID,0,VALID,100,VALID,0,VALID,19.8247,VALID,141,VALID,0.433503,
2005-09-06, 03:06:00,VALID,915.705,VALID,0,VALID,100,VALID,0.0509425,VALID,19.8341,VALID,141,VALID,0.558984,
2005-09-06, 03:07:00,VALID,915.717,VALID,0,VALID,100,VALID,0.0509425,VALID,19.8376,VALID,141,VALID,0.541921,
2005-09-06, 03:08:00,VALID,915.721,VALID,0,VALID,100,VALID,0.0169808,VALID,19.8406,VALID,140,VALID,0.43716,
2005-09-06, 03:09:00,VALID,915.701,VALID,0,VALID,100,VALID,0,VALID,19.8408,VALID,134,VALID,0.475291,
2005-09-06, 03:10:00,VALID,915.697,VALID,0,VALID,100,VALID,0,VALID,19.8349,VALID,120,VALID,0.78452,
2005-09-06, 03:11:00,VALID,915.692,VALID,0,VALID,100,VALID,0,VALID,19.851,VALID,115,VALID,1.0783,
2005-09-06, 03:12:00,VALID,915.689,VALID,0,VALID,100,VALID,0,VALID,19.8607,VALID,108,VALID,1.05831,
2005-09-06, 03:13:00,VALID,915.683,VALID,0,VALID,100,VALID,-0.0169808,VALID,19.8764,VALID,107,VALID,1.25781,
2005-09-06, 03:14:00,VALID,915.679,VALID,0,VALID,100,VALID,0,VALID,19.8925,VALID,108,VALID,1.21652,
2005-09-06, 03:15:00,VALID,915.676,VALID,0,VALID,100,VALID,0.0169808,VALID,19.8987,VALID,110,VALID,1.24888,
2005-09-06, 03:16:00,VALID,915.681,VALID,0,VALID,100,VALID,0.0169808,VALID,19.8958,VALID,110,VALID,0.915365,
2005-09-06, 03:17:00,VALID,915.673,VALID,0,VALID,100,VALID,0.0169808,VALID,19.889,VALID,115,VALID,0.83194,
2005-09-06, 03:18:00,VALID,915.67,VALID,0,VALID,100,VALID,0.0509425,VALID,19.8669,VALID,118,VALID,0.836979,
2005-09-06, 03:19:00,VALID,915.672,VALID,0,VALID,100,VALID,0,VALID,19.8535,VALID,130,VALID,0.758492,
2005-09-06, 03:20:00,VALID,915.678,VALID,0,VALID,100,VALID,0.0509425,VALID,19.8595,VALID,123,VALID,0.992569,
2005-09-06, 03:21:00,VALID,915.672,VALID,0,VALID,100,VALID,0.0169808,VALID,19.8592,VALID,134,VALID,1.10193,
2005-09-06, 03:22:00,VALID,915.681,VALID,0,VALID,100,VALID,0.0169808,VALID,19.8565,VALID,120,VALID,0.82976,
2005-09-06, 03:23:00,VALID,915.676,VALID,0,VALID,100,VALID,0,VALID,19.8505,VALID,121,VALID,0.983103,
2005-09-06, 03:24:00,VALID,915.662,VALID,0,VALID,100,VALID,0,VALID,19.8379,VALID,127,VALID,0.943788,
2005-09-06, 03:25:00,VALID,915.659,VALID,0,VALID,100,VALID,0.0169808,VALID,19.8083,VALID,122,VALID,0.905488,
2005-09-06, 03:26:00,VALID,915.646,VALID,0,VALID,100,VALID,0,VALID,19.779,VALID,112,VALID,0.717115,
2005-09-06, 03:27:00,VALID,915.634,VALID,0,VALID,100,VALID,0,VALID,19.77,VALID,145,VALID,0.615141,
2005-09-06, 03:28:00,VALID,915.642,VALID,0,VALID,100,VALID,0,VALID,19.7536,VALID,128,VALID,0.733008,
2005-09-06, 03:29:00,VALID,915.621,VALID,0,VALID,100,VALID,0.0509425,VALID,19.74,VALID,115,VALID,0.603601,
2005-09-06, 03:30:00,VALID,915.615,VALID,0,VALID,100,VALID,-0.0169808,VALID,19.7338,VALID,113,VALID,0.848166,
2005-09-06, 03:31:00,VALID,915.612,VALID,0,VALID,100,VALID,-0.0509425,VALID,19.7477,VALID,108,VALID,1.02788,
2005-09-06, 03:32:00,VALID,915.606,VALID,0,VALID,100,VALID,-0.101885,VALID,19.7676,VALID,105,VALID,1.33736,
2005-09-06, 03:33:00,VALID,915.602,VALID,0,VALID,100,VALID,-0.101885,VALID,19.7708,VALID,106,VALID,1.41426,
2005-09-06, 03:34:00,VALID,915.597,VALID,0,VALID,100,VALID,-0.0849042,VALID,19.7872,VALID,105,VALID,1.3194,
2005-09-06, 03:35:00,VALID,915.59,VALID,0,VALID,100,VALID,-0.0509425,VALID,19.7897,VALID,99,VALID,1.35411,
2005-09-06, 03:36:00,VALID,915.587,VALID,0,VALID,100,VALID,-0.0849042,VALID,19.7805,VALID,91,VALID,1.15646,
2005-09-06, 03:37:00,VALID,915.572,VALID,0,VALID,100,VALID,-0.0679233,VALID,19.7676,VALID,85,VALID,1.43413,
2005-09-06, 03:38:00,VALID,915.567,VALID,0,VALID,100,VALID,-0.0679233,VALID,19.7544,VALID,93,VALID,1.3298,
2005-09-06, 03:39:00,VALID,915.56,VALID,0,VALID,100,VALID,-0.0679233,VALID,19.7484,VALID,101,VALID,1.22428,
2005-09-06, 03:40:00,VALID,915.557,VALID,0,VALID,100,VALID,-0.0509425,VALID,19.7517,VALID,100,VALID,1.35742,